sat.trackr.live / text

‹ back to catalog

TURKSAT 6A

NORAD 60233 · 2024-127A

PAYLOAD ACTIVE UNKNOWN

§ Identity

Operator
Country
TURK
Launch date
2024-07-08
Launch site
AFETR
Launch vehicle
Mass (kg)
RCS (m²)

Purposes: comms

External: N2YO · Heavens-Above · Gunter

§ Orbital elements

Epoch: 2026-09-19T05:11:43.009728Z

Period
1,436.06 min
Inclination
0.0377°
Eccentricity
0.0004326
Mean motion
1.00274394 rev/d
Perigee alt
35,767.6 km
Apogee alt
35,804.1 km
Semi-major
42,164.0 km
B*
0.0000e+0
RAAN
226.3093°
Arg perigee
332.7312°
Mean anomaly
279.0075°
Rev number
796

§ Raw data

TURKSAT 6A1 60233U 24127A   26262.21647002  .00000142  00000+0  00000+0 0  99952 60233   0.0377 226.3093 0004326 332.7312 279.0075  1.00274394  7966

JSON: /api/v1/satellites/60233 · /tle

For live sub-satellite position, see the globe view (requires WebGL).

§ Visibility from observer

Set your observer location to see the next 7 days of passes ≥ 10°. The values pass through the URL so the page stays shareable.

No JS? Fill the form by hand. The geolocation button needs JavaScript.